EXS12VJ EGGW-LEPA

Flight info

Callsign EXS12VJ
Flight time N/A
Altitude 35000
Route RODNI N27 ICTAM Q63 CPT N859 VAPID UN859 SOPIL DCT BALAN DCT EVPOK DCT NARAK DCT GAI DCT LOMRA DCT ROCAN DCT IBRAP DCT LUKEV DCT LORES
Aircraft A21N/M-SDE3FGHIRWY/LB1

Departure

Time 2026-04-27 08:12
Airport London Luton Airport (EGGW)

Arrival

Time N/A
Airport Palma de Mallorca Airport (LEPA)
Time Latitude Longitude Altitude Speed Heading
2026-04-27 07:47 51.87846 -0.37902 534 ft 0 kts 44°
2026-04-27 08:02 51.87841 -0.37911 534 ft 2 kts 45°
2026-04-27 08:03 51.87833 -0.37932 534 ft 2 kts 78°
2026-04-27 08:03 51.87832 -0.37957 534 ft 2 kts 103°
2026-04-27 08:03 51.87838 -0.37979 534 ft 2 kts 129°
2026-04-27 08:03 51.87849 -0.37994 534 ft 0 kts 152°
2026-04-27 08:04 51.87854 -0.37998 534 ft 1 kts 156°
2026-04-27 08:04 51.87856 -0.38000 534 ft 0 kts 155°
2026-04-27 08:06 51.87854 -0.37998 534 ft 1 kts 155°
2026-04-27 08:06 51.87829 -0.37974 533 ft 7 kts 143°
2026-04-27 08:07 51.87787 -0.37889 533 ft 10 kts 118°
2026-04-27 08:07 51.87754 -0.37776 533 ft 11 kts 115°
2026-04-27 08:07 51.87719 -0.37655 533 ft 12 kts 115°
2026-04-27 08:07 51.87682 -0.37532 533 ft 12 kts 124°
2026-04-27 08:08 51.87613 -0.37443 533 ft 12 kts 140°
2026-04-27 08:08 51.87571 -0.37319 533 ft 13 kts 96°
2026-04-27 08:08 51.87587 -0.37172 533 ft 13 kts 75°
2026-04-27 08:08 51.87612 -0.37024 533 ft 13 kts 75°
2026-04-27 08:09 51.87638 -0.36876 533 ft 13 kts 75°
2026-04-27 08:09 51.87664 -0.36726 533 ft 14 kts 75°
2026-04-27 08:09 51.87691 -0.36573 533 ft 14 kts 74°
2026-04-27 08:09 51.87718 -0.36421 533 ft 14 kts 75°
2026-04-27 08:10 51.87744 -0.36264 533 ft 14 kts 74°
2026-04-27 08:10 51.87770 -0.36108 533 ft 14 kts 77°
2026-04-27 08:10 51.87746 -0.35962 533 ft 14 kts 147°
2026-04-27 08:10 51.87658 -0.35898 533 ft 7 kts 152°
2026-04-27 08:11 51.87632 -0.35878 533 ft 1 kts 181°
2026-04-27 08:11 51.87621 -0.35896 533 ft 0 kts 250°
2026-04-27 08:11 51.87611 -0.35944 533 ft 27 kts 253°
2026-04-27 08:11 51.87486 -0.36664 533 ft 103 kts 255°
2026-04-27 08:12 51.87231 -0.38130 542 ft 162 kts 255°
2026-04-27 08:12 51.86926 -0.39885 1101 ft 164 kts 256°
2026-04-27 08:12 51.86424 -0.41490 1733 ft 167 kts 219°
2026-04-27 08:12 51.85350 -0.42277 2297 ft 177 kts 197°
2026-04-27 08:13 51.84179 -0.43072 2733 ft 191 kts 210°
2026-04-27 08:13 51.83038 -0.44259 3247 ft 201 kts 215°
2026-04-27 08:13 51.81852 -0.45507 3848 ft 208 kts 213°
2026-04-27 08:13 51.80871 -0.47199 4310 ft 218 kts 246°
2026-04-27 08:14 51.80563 -0.49607 4859 ft 224 kts 265°
2026-04-27 08:14 51.80344 -0.52146 5417 ft 237 kts 261°
2026-04-27 08:14 51.79939 -0.54792 5947 ft 252 kts 257°
2026-04-27 08:14 51.79441 -0.57603 6534 ft 265 kts 256°
2026-04-27 08:15 51.78963 -0.60508 7162 ft 275 kts 258°
2026-04-27 08:15 51.78518 -0.63500 7967 ft 278 kts 259°
2026-04-27 08:15 51.78073 -0.66515 8844 ft 278 kts 258°
2026-04-27 08:15 51.77604 -0.69527 9649 ft 280 kts 257°
2026-04-27 08:16 51.77091 -0.72536 10390 ft 284 kts 256°
2026-04-27 08:16 51.76559 -0.75634 10989 ft 293 kts 255°
2026-04-27 08:16 51.75752 -0.78749 11319 ft 313 kts 242°
2026-04-27 08:16 51.74423 -0.81662 11631 ft 333 kts 229°
2026-04-27 08:17 51.72766 -0.84389 11941 ft 351 kts 226°
2026-04-27 08:17 51.70988 -0.87204 12304 ft 365 kts 226°
2026-04-27 08:17 51.69181 -0.90059 12917 ft 370 kts 226°
2026-04-27 08:17 51.67342 -0.92980 13607 ft 373 kts 226°
2026-04-27 08:18 51.65492 -0.95932 14268 ft 376 kts 226°
2026-04-27 08:18 51.63643 -0.98889 14909 ft 380 kts 227°
2026-04-27 08:18 51.61775 -1.01877 15537 ft 383 kts 227°
2026-04-27 08:18 51.59837 -1.04864 16157 ft 387 kts 221°
2026-04-27 08:19 51.57453 -1.06898 16699 ft 396 kts 198°
2026-04-27 08:19 51.54726 -1.07228 17291 ft 402 kts 174°
2026-04-27 08:19 51.52018 -1.06030 17900 ft 406 kts 162°
2026-04-27 08:19 51.49361 -1.04603 18436 ft 410 kts 163°
2026-04-27 08:20 51.48965 -1.04396 18513 ft 411 kts 163°